Location: Boiro
(42.6475°N, 8.8834°W)
Time: 18:58:50
(UTC+01:00)

Tiros 1 - Pass Details

Date: 06 December 2021
Orbit: 630 x 663 km, 48.4° (Epoch: 20 January)

Event Time Altitude Azimuth Distance (km) Brightness Sun altitude
Rises 22:17:39 0° 286° (WNW) 2,933 11.3 -46.1°
Enters shadow 22:18:29 - 288° (WNW) 2,618 10.9 -46.3°
Reaches altitude 10° 22:20:05 10° 294° (WNW) 2,029 - -46.6°
Maximum altitude 22:24:31 41° 5° (N) 930 - -47.4°
Drops below altitude 10° 22:29:00 10° 76° (ENE) 2,049 - -48.2°
Sets 22:31:28 0° 84° (E) 2,965 - -48.6°
